Location: Unspecified
(0.0000°N, 0.0000°E)
Time: 17:59:54
(UTC+00:00)

STARLINK 1055 - Pass Details

Date: 19 January 2020
Orbit: 548 x 551 km, 53.0° (Epoch: 17 January)

Event Time Altitude Azimuth Distance (km) Brightness Sun altitude
Rises 04:53:03 0° 183° (S) 2,713 7.4 -18.1°
Reaches altitude 10° 04:56:12 10° 158° (SSE) 1,817 6.9 -17.4°
Maximum altitude 04:58:26 14° 125° (SE) 1,564 7.0 -16.8°
Drops below altitude 10° 05:00:39 10° 92° (E) 1,813 7.4 -16.3°
Sets 05:03:47 0° 67° (ENE) 2,702 7.9 -15.6°
